FW0743 Weather Reports


Display with metric or nautical units.
time (UTC)temp
F
wind
direction
speed
MPH
gust
MPH
rain 1hr
in
rain 24hr
in
rain mn
in
humidity
%
barometer
mb
20260904224513 69 339 2.0 7.0 0.00 0.00 0.00 72 1013.3
20260904223016 69 360 3.0 7.0 0.00 0.00 0.00 70 1013.4
20260904221533 70 326 3.0 9.0 0.00 0.00 0.00 67 1013.3
20260904220031 70 346 2.0 9.0 0.00 0.00 0.00 66 1013.4
20260904214511 71 336 4.0 10.0 0.00 0.00 0.00 63 1013.5
20260904213016 72 352 6.0 12.0 0.00 0.00 0.00 63 1013.5
20260904211520 73 319 5.0 11.0 0.00 0.00 0.00 61 1013.5
20260904210034 73 311 4.0 8.0 0.00 0.00 0.00 62 1013.7
20260904204532 73 308 6.0 14.0 0.00 0.00 0.00 62 1013.7
20260904203019 73 23 5.0 12.0 0.00 0.00 0.00 61 1013.7
20260904201520 73 323 6.0 12.0 0.00 0.00 0.00 61 1013.9
20260904200045 72 327 7.0 13.0 0.00 0.00 0.00 64 1014.1
20260904194533 73 300 4.0 12.0 0.00 0.00 0.00 65 1014.3
20260904193007 72 331 5.0 13.0 0.00 0.00 0.00 64 1014.3
20260904191514 73 351 5.0 15.0 0.00 0.00 0.00 62 1014.3
20260904190023 73 300 5.0 12.0 0.00 0.00 0.00 62 1014.3
20260904184536 74 333 6.0 15.0 0.00 0.00 0.00 60 1014.3
20260904183039 74 291 6.0 13.0 0.00 0.00 0.00 61 1014.3
20260904181514 73 322 5.0 13.0 0.00 0.00 0.00 63 1014.4
20260904180016 74 321 6.0 13.0 0.00 0.00 0.00 62 1014.4
20260904174526 74 319 6.0 13.0 0.00 0.00 0.00 60 1014.7
20260904173037 73 307 3.0 13.0 0.00 0.00 0.00 64 1014.6
20260904171511 73 307 7.0 12.0 0.00 0.00 0.00 61 1014.5
20260904170014 73 348 9.0 16.0 0.00 0.00 0.00 62 1014.6
20260904164523 73 5 6.0 13.0 0.00 0.00 0.00 64 1014.7
20260904163026 73 345 5.0 12.0 0.00 0.00 0.00 63 1015.0
20260904161509 72 323 5.0 14.0 0.00 0.00 0.00 65 1014.7
20260904160016 73 63 4.0 11.0 0.00 0.00 0.00 65 1014.8
20260904154518 72 28 5.0 13.0 0.00 0.00 0.00 69 1014.9
20260904153028 72 319 4.0 12.0 0.00 0.00 0.00 68 1014.6
20260904151533 72 53 6.0 11.0 0.00 0.00 0.00 68 1014.6
20260904150008 72 15 4.0 11.0 0.00 0.00 0.00 72 1014.6
20260904144520 72 342 4.0 8.0 0.00 0.00 0.00 73 1014.6
20260904143033 71 323 3.0 13.0 0.00 0.00 0.00 73 1014.7
20260904141529 71 304 4.0 10.0 0.00 0.00 0.00 76 1014.6
20260904140031 70 360 6.0 9.0 0.00 0.00 0.00 77 1014.9
20260904134517 70 28 3.0 8.0 0.00 0.00 0.00 80 1014.9
20260904133019 69 282 2.0 8.0 0.00 0.00 0.00 85 1015.1
20260904131525 68 312 2.0 7.0 0.00 0.00 0.00 90 1014.7
20260904130031 67 26 2.0 7.0 0.00 0.00 0.00 95 1014.6
20260904124514 65 346 2.0 5.0 0.00 0.00 0.00 98 1014.6
20260904123018 64 325 0.0 3.0 0.00 0.00 0.00 98 1014.7
20260904121523 63 308 1.0 3.0 0.00 0.00 0.00 98 1015.0
20260904120029 62 303 0.0 2.0 0.00 0.00 0.00 98 1014.7
20260904114530 61 338 0.0 0.0 0.00 0.00 0.00 98 1014.6
20260904113014 60 338 0.0 0.0 0.00 0.00 0.00 99 1014.6
20260904111523 59 338 0.0 1.0 0.00 0.00 0.00 99 1014.5
20260904110026 58 338 0.0 1.0 0.00 0.00 0.00 98 1014.5
20260904104531 58 338 0.0 1.0 0.00 0.00 0.00 98 1014.3
20260904103032 58 338 0.0 0.0 0.00 0.00 0.00 98 1014.3
20260904101516 58 338 0.0 0.0 0.00 0.00 0.00 98 1014.1
20260904100023 58 338 0.0 1.0 0.00 0.00 0.00 98 1013.8
20260904094545 59 338 0.0 1.0 0.00 0.00 0.00 98 1013.8
20260904093035 59 338 0.0 0.0 0.00 0.00 0.00 97 1013.6
20260904091537 59 338 0.0 0.0 0.00 0.00 0.00 98 1013.7
20260904090040 59 338 0.0 2.0 0.00 0.00 0.00 97 1013.4
20260904084530 59 338 0.0 1.0 0.00 0.00 0.00 98 1013.3
20260904083103 60 338 0.0 0.0 0.00 0.00 0.00 98 1013.1
20260904081511 60 338 0.0 1.0 0.00 0.00 0.00 98 1013.1
20260904080019 60 338 0.0 2.0 0.00 0.00 0.00 97 1013.0
20260904074531 60 338 0.0 2.0 0.00 0.00 0.00 97 1013.1
20260904073003 61 338 0.0 3.0 0.00 0.00 0.00 97 1013.0
20260904071508 61 338 0.0 1.0 0.00 0.00 0.00 97 1013.0
20260904070014 61 338 0.0 0.0 0.00 0.00 0.00 97 1012.9
20260904064520 62 338 0.0 3.0 0.00 0.00 0.00 97 1012.8
20260904063032 62 348 0.0 1.0 0.00 0.00 0.00 97 1012.9
20260904061509 62 348 0.0 1.0 0.00 0.00 0.00 97 1013.2
20260904060016 63 348 0.0 3.0 0.00 0.00 0.00 98 1013.2
20260904054518 63 282 0.0 2.0 0.00 0.00 0.00 97 1013.4
20260904053041 62 282 0.0 2.0 0.00 0.00 0.00 97 1013.5
20260904051537 62 282 0.0 1.0 0.00 0.00 0.00 97 1013.6
20260904050006 62 282 0.0 0.0 0.00 0.00 0.00 97 1013.5
20260904044520 62 282 0.0 0.0 0.00 0.00 0.00 97 1013.6
20260904043032 62 282 0.0 1.0 0.00 0.00 0.00 97 1013.4
20260904041527 62 282 0.0 0.0 0.00 0.00 0.00 96 1013.5
20260904040009 62 282 0.0 0.0 0.00 0.00 0.00 97 1013.4
20260904034511 62 282 0.0 0.0 0.00 0.00 0.00 96 1013.4
20260904033019 62 282 0.0 0.0 0.00 0.00 0.00 96 1013.5
20260904031535 63 282 0.0 2.0 0.00 0.00 0.00 96 1013.5
20260904030030 63 208 0.0 3.0 0.00 0.00 0.00 96 1013.5
20260904024508 63 140 0.0 2.0 0.00 0.00 0.00 96 1013.5
20260904023014 63 40 0.0 1.0 0.00 0.00 0.00 95 1013.5
20260904021525 64 40 0.0 1.0 0.00 0.00 0.00 95 1013.7
20260904020028 64 40 0.0 0.0 0.00 0.00 0.00 95 1013.7
20260904014533 64 40 0.0 1.0 0.00 0.01 0.00 94 1013.6
20260904013012 65 40 0.0 1.0 0.00 0.03 0.00 94 1013.7
20260904011518 65 40 0.0 0.0 0.00 0.05 0.00 93 1013.6
20260904010026 66 40 0.0 0.0 0.00 0.06 0.00 93 1013.8
20260904004534 66 40 0.0 0.0 0.00 0.08 0.00 92 1013.8
20260904003033 66 40 0.0 1.0 0.00 0.11 0.00 92 1013.6
20260904001516 67 40 0.0 1.0 0.00 0.13 0.00 91 1013.4
20260904000024 68 40 0.0 0.0 0.00 0.14 0.00 88 1013.5
20260903234529 68 40 0.0 0.0 0.00 0.14 0.00 87 1013.4
20260903233031 69 40 0.0 0.0 0.00 0.14 0.00 85 1013.3
20260903231512 71 40 0.0 0.0 0.00 0.14 0.00 83 1013.2
20260903230034 72 40 0.0 0.0 0.00 0.14 0.00 82 1013.1